Time,TemperatureF,DewpointF,PressureIn,WindDirection,WindDirectionDegrees,WindSpeedMPH,WindSpeedGustMPH,Humidity,HourlyPrecipIn,Conditions,Clouds,dailyrainin,SoftwareType,DateUTC
2013-01-31 00:03:00,14.0,14.0,30.02,NW,315,19.0,23.0,100,0.00,,,0.00,VWS V14.01,2013-01-31 07:03:00,
2013-01-31 00:08:00,14.0,14.0,30.02,NW,315,22.0,26.0,100,0.00,,,0.00,VWS V14.01,2013-01-31 07:08:00,
2013-01-31 00:13:00,14.0,14.0,30.02,NNW,337,14.0,29.0,100,0.00,,,0.00,VWS V14.01,2013-01-31 07:13:00,
2013-01-31 00:18:00,13.0,13.0,30.02,NNW,337,16.0,20.0,100,0.00,,,0.00,VWS V14.01,2013-01-31 07:18:00,
2013-01-31 00:23:00,13.0,13.0,30.04,NNW,337,20.0,26.0,100,0.00,,,0.00,VWS V14.01,2013-01-31 07:23:00,
2013-01-31 00:28:00,13.0,13.0,30.04,NW,315,16.0,27.0,100,0.00,,,0.00,VWS V14.01,2013-01-31 07:28:00,
2013-01-31 00:33:00,13.0,13.0,30.03,NNW,337,18.0,28.0,100,0.00,,,0.00,VWS V14.01,2013-01-31 07:33:00,
2013-01-31 00:38:00,12.0,12.0,30.03,NNW,337,22.0,25.0,100,0.00,,,0.00,VWS V14.01,2013-01-31 07:38:00,
2013-01-31 00:43:00,12.0,12.0,30.05,NW,315,19.0,25.0,100,0.00,,,0.00,VWS V14.01,2013-01-31 07:43:00,
2013-01-31 00:48:00,12.0,12.0,30.05,NW,315,16.0,25.0,100,0.00,,,0.00,VWS V14.01,2013-01-31 07:48:00,
2013-01-31 00:53:00,12.0,12.0,30.06,NW,315,15.0,23.0,100,0.00,,,0.00,VWS V14.01,2013-01-31 07:53:00,
2013-01-31 00:58:00,12.0,12.0,30.06,NNW,337,20.0,22.0,100,0.00,,,0.00,VWS V14.01,2013-01-31 07:58:00,
2013-01-31 01:03:00,11.0,11.0,30.07,NNW,337,18.0,21.0,100,0.00,,,0.00,VWS V14.01,2013-01-31 08:03:00,
2013-01-31 01:08:00,11.0,11.0,30.07,NNW,337,15.0,22.0,100,0.00,,,0.00,VWS V14.01,2013-01-31 08:08:00,
2013-01-31 01:13:00,11.0,11.0,30.07,NNW,337,15.0,22.0,100,0.00,,,0.00,VWS V14.01,2013-01-31 08:13:00,
2013-01-31 01:18:00,11.0,11.0,30.07,NNW,337,18.0,21.0,100,0.00,,,0.00,VWS V14.01,2013-01-31 08:18:00,
2013-01-31 01:23:00,11.0,11.0,30.08,NNW,337,14.0,20.0,100,0.00,,,0.00,VWS V14.01,2013-01-31 08:23:00,
2013-01-31 01:28:00,12.0,10.8,30.08,NW,315,15.0,25.0,95,0.00,,,0.00,VWS V14.01,2013-01-31 08:28:00,
2013-01-31 01:33:00,12.0,10.6,30.08,NW,315,22.0,28.0,94,0.00,,,0.00,VWS V14.01,2013-01-31 08:33:00,
2013-01-31 01:38:00,12.0,10.8,30.08,NW,315,20.0,24.0,95,0.00,,,0.00,VWS V14.01,2013-01-31 08:38:00,
2013-01-31 01:43:00,12.0,11.1,30.08,NW,315,19.0,22.0,96,0.00,,,0.00,VWS V14.01,2013-01-31 08:43:00,
2013-01-31 01:48:00,11.0,10.1,30.08,NW,315,13.0,21.0,96,0.00,,,0.00,VWS V14.01,2013-01-31 08:48:00,
2013-01-31 01:53:00,11.0,10.1,30.09,NW,315,16.0,19.0,96,0.00,,,0.00,VWS V14.01,2013-01-31 08:53:00,
2013-01-31 01:58:00,11.0,10.3,30.09,NW,315,15.0,18.0,97,0.00,,,0.00,VWS V14.01,2013-01-31 08:58:00,
2013-01-31 02:03:00,11.0,11.0,30.09,NNW,337,13.0,16.0,100,0.00,,,0.00,VWS V14.01,2013-01-31 09:03:00,
2013-01-31 02:08:00,11.0,10.5,30.09,NW,315,14.0,17.0,98,0.00,,,0.00,VWS V14.01,2013-01-31 09:08:00,
2013-01-31 02:13:00,11.0,10.3,30.10,NW,315,16.0,21.0,97,0.00,,,0.00,VWS V14.01,2013-01-31 09:13:00,
2013-01-31 02:18:00,11.0,9.9,30.10,NW,315,18.0,23.0,95,0.00,,,0.00,VWS V14.01,2013-01-31 09:18:00,
2013-01-31 02:23:00,11.0,9.6,30.10,NW,315,17.0,22.0,94,0.00,,,0.00,VWS V14.01,2013-01-31 09:23:00,
2013-01-31 02:28:00,11.0,9.9,30.10,NW,315,19.0,22.0,95,0.00,,,0.00,VWS V14.01,2013-01-31 09:28:00,
2013-01-31 02:33:00,11.0,9.1,30.10,NW,315,15.0,23.0,92,0.00,,,0.00,VWS V14.01,2013-01-31 09:33:00,
2013-01-31 02:38:00,11.0,9.4,30.10,NW,315,15.0,25.0,93,0.00,,,0.00,VWS V14.01,2013-01-31 09:38:00,
2013-01-31 02:43:00,11.0,9.1,30.11,NW,315,12.0,22.0,92,0.00,,,0.00,VWS V14.01,2013-01-31 09:43:00,
2013-01-31 02:48:00,11.0,8.9,30.12,WNW,292,12.0,19.0,91,0.00,,,0.00,VWS V14.01,2013-01-31 09:48:00,
2013-01-31 02:53:00,10.0,10.0,30.12,NNW,337,20.0,20.0,100,0.00,,,0.00,VWS V14.01,2013-01-31 09:53:00,
2013-01-31 02:58:00,8.0,8.0,30.14,NNW,337,15.0,21.0,100,0.00,,,0.00,VWS V14.01,2013-01-31 09:58:00,
2013-01-31 03:03:00,8.0,8.0,30.14,NNW,337,15.0,20.0,100,0.00,,,0.00,VWS V14.01,2013-01-31 10:03:00,
2013-01-31 03:08:00,7.0,7.0,30.15,NNW,337,13.0,19.0,100,0.00,,,0.00,VWS V14.01,2013-01-31 10:08:00,
2013-01-31 03:13:00,7.0,7.0,30.15,NNW,337,17.0,21.0,100,0.00,,,0.00,VWS V14.01,2013-01-31 10:13:00,
2013-01-31 03:19:00,7.0,7.0,30.15,NNW,337,16.0,19.0,100,0.00,,,0.00,VWS V14.01,2013-01-31 10:19:00,
2013-01-31 03:24:00,8.0,8.0,30.15,NNW,337,16.0,22.0,100,0.00,,,0.00,VWS V14.01,2013-01-31 10:24:00,
2013-01-31 03:29:00,8.0,8.0,30.13,NNW,337,20.0,26.0,100,0.00,,,0.00,VWS V14.01,2013-01-31 10:29:00,
2013-01-31 03:34:00,8.0,8.0,30.13,NNW,337,19.0,25.0,100,0.00,,,0.00,VWS V14.01,2013-01-31 10:34:00,
2013-01-31 03:39:00,8.0,8.0,30.14,NNW,337,19.0,24.0,100,0.00,,,0.00,VWS V14.01,2013-01-31 10:39:00,
2013-01-31 03:44:00,7.0,7.0,30.14,NNW,337,19.0,25.0,100,0.00,,,0.00,VWS V14.01,2013-01-31 10:44:00,
2013-01-31 03:49:00,7.0,7.0,30.16,North,360,14.0,25.0,100,0.00,,,0.00,VWS V14.01,2013-01-31 10:49:00,
2013-01-31 03:54:00,7.0,7.0,30.16,NNW,337,19.0,27.0,100,0.00,,,0.00,VWS V14.01,2013-01-31 10:54:00,
2013-01-31 03:59:00,7.0,7.0,30.17,NNW,337,17.0,26.0,100,0.00,,,0.00,VWS V14.01,2013-01-31 10:59:00,
2013-01-31 04:04:00,6.0,6.0,30.17,NNW,337,16.0,23.0,100,0.00,,,0.00,VWS V14.01,2013-01-31 11:04:00,
2013-01-31 04:09:00,6.0,6.0,30.18,NNW,337,20.0,24.0,100,0.00,,,0.00,VWS V14.01,2013-01-31 11:09:00,
2013-01-31 04:14:00,6.0,6.0,30.18,North,360,15.0,24.0,100,0.00,,,0.00,VWS V14.01,2013-01-31 11:14:00,
2013-01-31 04:19:00,6.0,6.0,30.18,NNW,337,21.0,23.0,100,0.00,,,0.00,VWS V14.01,2013-01-31 11:19:00,
2013-01-31 04:24:00,6.0,6.0,30.18,NNW,337,20.0,25.0,100,0.00,,,0.00,VWS V14.01,2013-01-31 11:24:00,
2013-01-31 04:29:00,6.0,6.0,30.19,NNW,337,16.0,22.0,100,0.00,,,0.00,VWS V14.01,2013-01-31 11:29:00,
2013-01-31 04:34:00,6.0,6.0,30.19,NNW,337,15.0,22.0,100,0.00,,,0.00,VWS V14.01,2013-01-31 11:34:00,
2013-01-31 04:39:00,5.0,5.0,30.21,North,360,13.0,21.0,100,0.00,,,0.00,VWS V14.01,2013-01-31 11:39:00,
2013-01-31 04:44:00,5.0,5.0,30.21,NNW,337,17.0,20.0,100,0.00,,,0.00,VWS V14.01,2013-01-31 11:44:00,
2013-01-31 04:49:00,5.0,5.0,30.22,North,360,16.0,19.0,100,0.00,,,0.00,VWS V14.01,2013-01-31 11:49:00,
2013-01-31 04:54:00,5.0,5.0,30.22,NNW,337,10.0,17.0,100,0.00,,,0.00,VWS V14.01,2013-01-31 11:54:00,
2013-01-31 04:59:00,5.0,5.0,30.22,North,360,13.0,19.0,100,0.00,,,0.00,VWS V14.01,2013-01-31 11:59:00,
2013-01-31 05:04:00,5.0,5.0,30.22,North,360,13.0,19.0,100,0.00,,,0.00,VWS V14.01,2013-01-31 12:04:00,
2013-01-31 05:09:00,5.0,5.0,30.22,North,360,14.0,19.0,100,0.00,,,0.00,VWS V14.01,2013-01-31 12:09:00,
2013-01-31 05:14:00,5.0,5.0,30.22,NNW,337,16.0,17.0,100,0.00,,,0.00,VWS V14.01,2013-01-31 12:14:00,
2013-01-31 05:19:00,5.0,5.0,30.23,NNW,337,13.0,18.0,100,0.00,,,0.00,VWS V14.01,2013-01-31 12:19:00,
2013-01-31 05:24:00,5.0,5.0,30.23,North,360,10.0,17.0,100,0.00,,,0.00,VWS V14.01,2013-01-31 12:24:00,
2013-01-31 05:29:00,5.0,5.0,30.23,NNW,337,17.0,19.0,100,0.00,,,0.00,VWS V14.01,2013-01-31 12:29:00,
2013-01-31 05:34:00,5.0,5.0,30.23,NNW,337,16.0,23.0,100,0.00,,,0.00,VWS V14.01,2013-01-31 12:34:00,
2013-01-31 05:39:00,5.0,5.0,30.23,NNW,337,21.0,27.0,100,0.00,,,0.00,VWS V14.01,2013-01-31 12:39:00,
2013-01-31 05:44:00,5.0,5.0,30.23,NNW,337,17.0,23.0,100,0.00,,,0.00,VWS V14.01,2013-01-31 12:44:00,
2013-01-31 05:49:00,5.0,5.0,30.23,NNW,337,26.0,26.0,100,0.00,,,0.00,VWS V14.01,2013-01-31 12:49:00,
2013-01-31 05:54:00,6.0,6.0,30.23,NNW,337,24.0,28.0,100,0.00,,,0.00,VWS V14.01,2013-01-31 12:54:00,
2013-01-31 05:59:00,6.0,6.0,30.24,NNW,337,23.0,26.0,100,0.00,,,0.00,VWS V14.01,2013-01-31 12:59:00,
2013-01-31 06:04:00,7.0,7.0,30.24,NNW,337,19.0,28.0,100,0.00,,,0.00,VWS V14.01,2013-01-31 13:04:00,
2013-01-31 06:09:00,7.0,7.0,30.24,NNW,337,18.0,30.0,100,0.00,,,0.00,VWS V14.01,2013-01-31 13:09:00,
2013-01-31 06:14:00,7.0,7.0,30.24,NNW,337,25.0,29.0,100,0.00,,,0.00,VWS V14.01,2013-01-31 13:14:00,
2013-01-31 06:19:00,7.0,7.0,30.23,NNW,337,25.0,31.0,100,0.00,,,0.00,VWS V14.01,2013-01-31 13:19:00,
2013-01-31 06:24:00,7.0,6.1,30.23,NW,315,30.0,34.0,96,0.00,,,0.00,VWS V14.01,2013-01-31 13:24:00,
2013-01-31 06:29:00,7.0,5.9,30.23,NNW,337,23.0,35.0,95,0.00,,,0.00,VWS V14.01,2013-01-31 13:29:00,
2013-01-31 06:34:00,7.0,6.1,30.23,NW,315,28.0,34.0,96,0.00,,,0.00,VWS V14.01,2013-01-31 13:34:00,
2013-01-31 06:39:00,7.0,6.6,30.25,NW,315,23.0,33.0,98,0.00,,,0.00,VWS V14.01,2013-01-31 13:39:00,
2013-01-31 06:44:00,7.0,7.0,30.25,NNW,337,23.0,28.0,100,0.00,,,0.00,VWS V14.01,2013-01-31 13:44:00,
2013-01-31 06:49:00,6.0,6.0,30.28,NNW,337,12.0,27.0,100,0.00,,,0.00,VWS V14.01,2013-01-31 13:49:00,
2013-01-31 06:54:00,5.0,5.0,30.28,NNW,337,15.0,20.0,100,0.00,,,0.00,VWS V14.01,2013-01-31 13:54:00,
2013-01-31 06:59:00,5.0,5.0,30.28,NNW,337,16.0,20.0,100,0.00,,,0.00,VWS V14.01,2013-01-31 13:59:00,
2013-01-31 07:04:00,5.0,5.0,30.28,NW,315,14.0,20.0,100,0.00,,,0.00,VWS V14.01,2013-01-31 14:04:00,
2013-01-31 07:09:00,5.0,5.0,30.29,North,360,17.0,20.0,100,0.00,,,0.00,VWS V14.01,2013-01-31 14:09:00,
2013-01-31 07:14:00,4.0,4.0,30.29,NNW,337,17.0,20.0,100,0.00,,,0.00,VWS V14.01,2013-01-31 14:14:00,
2013-01-31 07:19:00,4.0,4.0,30.31,North,360,15.0,19.0,100,0.00,,,0.00,VWS V14.01,2013-01-31 14:19:00,
2013-01-31 07:24:00,3.0,3.0,30.31,NNW,337,20.0,21.0,100,0.00,,,0.00,VWS V14.01,2013-01-31 14:24:00,
2013-01-31 07:29:00,3.0,3.0,30.32,NNW,337,15.0,20.0,100,0.00,,,0.00,VWS V14.01,2013-01-31 14:29:00,
2013-01-31 07:34:00,3.0,3.0,30.32,NNW,337,13.0,20.0,100,0.00,,,0.00,VWS V14.01,2013-01-31 14:34:00,
2013-01-31 07:39:00,2.0,2.0,30.33,NNW,337,15.0,20.0,100,0.00,,,0.00,VWS V14.01,2013-01-31 14:39:00,
2013-01-31 07:44:00,2.0,2.0,30.33,NNW,337,19.0,20.0,100,0.00,,,0.00,VWS V14.01,2013-01-31 14:44:00,
2013-01-31 07:49:00,2.0,2.0,30.33,NNW,337,15.0,20.0,100,0.00,,,0.00,VWS V14.01,2013-01-31 14:49:00,
2013-01-31 07:54:00,2.0,2.0,30.33,North,360,16.0,20.0,100,0.00,,,0.00,VWS V14.01,2013-01-31 14:54:00,
2013-01-31 07:59:00,2.0,2.0,30.35,North,360,17.0,21.0,100,0.00,,,0.00,VWS V14.01,2013-01-31 14:59:00,
2013-01-31 08:04:00,2.0,2.0,30.35,North,360,14.0,19.0,100,0.00,,,0.00,VWS V14.01,2013-01-31 15:04:00,
2013-01-31 08:09:00,1.0,1.0,30.35,North,360,13.0,20.0,100,0.00,,,0.00,VWS V14.01,2013-01-31 15:09:00,
2013-01-31 08:14:00,1.0,0.0,30.35,North,360,13.0,19.0,100,0.00,,,0.00,VWS V14.01,2013-01-31 15:14:00,
2013-01-31 08:19:00,1.0,0.0,30.37,North,360,17.0,18.0,100,0.00,,,0.00,VWS V14.01,2013-01-31 15:19:00,
2013-01-31 08:24:00,1.0,0.0,30.37,NNW,337,13.0,19.0,100,0.00,,,0.00,VWS V14.01,2013-01-31 15:24:00,
2013-01-31 08:29:00,1.0,1.0,30.37,NW,315,15.0,19.0,100,0.00,,,0.00,VWS V14.01,2013-01-31 15:29:00,
2013-01-31 08:34:00,1.0,1.0,30.37,North,360,12.0,19.0,100,0.00,,,0.00,VWS V14.01,2013-01-31 15:34:00,
2013-01-31 08:39:00,1.0,0.0,30.39,North,360,12.0,19.0,100,0.00,,,0.00,VWS V14.01,2013-01-31 15:39:00,
2013-01-31 08:44:00,1.0,0.0,30.39,North,360,12.0,16.0,100,0.00,,,0.00,VWS V14.01,2013-01-31 15:44:00,
2013-01-31 08:49:00,1.0,1.0,30.38,North,360,12.0,17.0,100,0.00,,,0.00,VWS V14.01,2013-01-31 15:49:00,
2013-01-31 08:54:00,1.0,0.0,30.38,NNW,337,12.0,19.0,100,0.00,,,0.00,VWS V14.01,2013-01-31 15:54:00,
2013-01-31 08:59:00,1.0,1.0,30.39,North,360,10.0,17.0,100,0.00,,,0.00,VWS V14.01,2013-01-31 15:59:00,
2013-01-31 09:04:00,1.0,0.0,30.39,North,360,13.0,19.0,100,0.00,,,0.00,VWS V14.01,2013-01-31 16:04:00,
2013-01-31 09:09:00,1.0,0.0,30.40,North,360,16.0,20.0,100,0.00,,,0.00,VWS V14.01,2013-01-31 16:09:00,
2013-01-31 09:14:00,1.0,0.0,30.40,North,360,17.0,20.0,100,0.00,,,0.00,VWS V14.01,2013-01-31 16:14:00,
2013-01-31 09:19:00,1.0,0.0,30.40,NNW,337,17.0,20.0,100,0.00,,,0.00,VWS V14.01,2013-01-31 16:19:00,
2013-01-31 09:24:00,1.0,0.0,30.40,North,360,12.0,20.0,100,0.00,,,0.00,VWS V14.01,2013-01-31 16:24:00,
2013-01-31 09:29:00,1.0,1.0,30.40,North,360,12.0,17.0,100,0.00,,,0.00,VWS V14.01,2013-01-31 16:29:00,
2013-01-31 09:34:00,1.0,1.0,30.40,North,360,12.0,20.0,100,0.00,,,0.00,VWS V14.01,2013-01-31 16:34:00,
2013-01-31 09:45:00,1.0,1.0,30.39,North,360,15.0,25.0,100,0.00,,,0.00,VWS V14.01,2013-01-31 16:45:00,
2013-01-31 10:00:00,1.0,0.8,30.42,NNW,337,11.0,15.0,99,0.00,,,0.00,VWS V14.01,2013-01-31 17:00:00,
2013-01-31 10:15:00,1.0,0.6,30.41,NNW,337,11.0,11.0,98,0.00,,,0.00,VWS V14.01,2013-01-31 17:15:00,
2013-01-31 10:30:00,2.0,2.0,30.42,NNW,337,10.0,11.0,100,0.00,,,0.00,VWS V14.01,2013-01-31 17:30:00,
2013-01-31 10:45:00,2.0,1.3,30.42,North,360,9.0,10.0,97,0.00,,,0.00,VWS V14.01,2013-01-31 17:45:00,
2013-01-31 11:00:00,2.0,2.0,30.41,NNW,337,11.0,11.0,100,0.00,,,0.00,VWS V14.01,2013-01-31 18:00:00,
2013-01-31 11:15:00,2.0,1.8,30.41,NW,315,9.0,11.0,99,0.00,,,0.00,VWS V14.01,2013-01-31 18:15:00,
2013-01-31 11:30:00,3.0,2.1,30.40,NW,315,7.0,9.0,96,0.00,,,0.00,VWS V14.01,2013-01-31 18:30:00,
2013-01-31 11:45:00,5.0,3.9,30.39,NNW,337,6.0,7.0,95,0.00,,,0.00,VWS V14.01,2013-01-31 18:45:00,
2013-01-31 12:00:00,6.0,3.7,30.37,North,360,6.0,6.0,90,0.00,,,0.00,VWS V14.01,2013-01-31 19:00:00,
2013-01-31 12:15:00,7.0,4.0,30.37,North,360,5.0,6.0,87,0.00,,,0.00,VWS V14.01,2013-01-31 19:15:00,
2013-01-31 12:30:00,7.0,4.2,30.36,North,360,3.0,5.0,88,0.00,,,0.00,VWS V14.01,2013-01-31 19:30:00,
2013-01-31 12:45:00,6.0,3.0,30.35,West,270,0.0,3.0,87,0.00,,,0.00,VWS V14.01,2013-01-31 19:45:00,
2013-01-31 13:00:00,9.0,5.2,30.34,North,360,0.0,0.0,84,0.00,,,0.00,VWS V14.01,2013-01-31 20:00:00,
2013-01-31 13:15:00,7.0,4.4,30.35,NE,45,0.0,0.0,89,0.00,,,0.00,VWS V14.01,2013-01-31 20:15:00,
2013-01-31 13:30:00,7.0,5.6,30.35,SE,135,1.0,1.0,94,0.00,,,0.00,VWS V14.01,2013-01-31 20:30:00,
2013-01-31 13:45:00,7.0,4.7,30.34,SSE,157,3.0,3.0,90,0.00,,,0.00,VWS V14.01,2013-01-31 20:45:00,
2013-01-31 14:00:00,7.0,6.1,30.34,SSE,157,3.0,3.0,96,0.00,,,0.00,VWS V14.01,2013-01-31 21:00:00,
2013-01-31 14:15:00,7.0,6.6,30.33,SE,135,5.0,5.0,98,0.00,,,0.00,VWS V14.01,2013-01-31 21:15:00,
2013-01-31 14:30:00,7.0,6.6,30.34,SSE,157,5.0,5.0,98,0.00,,,0.00,VWS V14.01,2013-01-31 21:30:00,
2013-01-31 14:45:00,6.0,6.0,30.34,ESE,112,5.0,5.0,100,0.00,,,0.00,VWS V14.01,2013-01-31 21:45:00,
2013-01-31 15:03:00,7.0,6.8,30.33,SE,135,5.0,5.0,99,0.00,,,0.00,VWS V14.01,2013-01-31 22:03:00,
2013-01-31 15:08:00,7.0,7.0,30.33,SE,135,5.0,9.0,100,0.00,,,0.00,VWS V14.01,2013-01-31 22:08:00,
2013-01-31 15:13:00,7.0,6.8,30.33,SE,135,6.0,8.0,99,0.00,,,0.00,VWS V14.01,2013-01-31 22:13:00,
2013-01-31 15:18:00,7.0,7.0,30.33,SSE,157,5.0,7.0,100,0.00,,,0.00,VWS V14.01,2013-01-31 22:18:00,
2013-01-31 15:23:00,7.0,6.8,30.33,SE,135,5.0,8.0,99,0.00,,,0.00,VWS V14.01,2013-01-31 22:23:00,
2013-01-31 15:28:00,7.0,7.0,30.33,SSE,157,5.0,7.0,100,0.00,,,0.00,VWS V14.01,2013-01-31 22:28:00,
2013-01-31 15:33:00,7.0,6.6,30.33,SE,135,9.0,9.0,98,0.00,,,0.00,VWS V14.01,2013-01-31 22:33:00,
2013-01-31 15:38:00,8.0,7.6,30.33,SE,135,6.0,9.0,98,0.00,,,0.00,VWS V14.01,2013-01-31 22:38:00,
2013-01-31 15:43:00,8.0,7.3,30.32,SSE,157,6.0,9.0,97,0.00,,,0.00,VWS V14.01,2013-01-31 22:43:00,
2013-01-31 15:48:00,8.0,7.1,30.32,SSE,157,7.0,7.0,96,0.00,,,0.00,VWS V14.01,2013-01-31 22:48:00,
2013-01-31 15:53:00,8.0,7.1,30.31,SE,135,7.0,7.0,96,0.00,,,0.00,VWS V14.01,2013-01-31 22:53:00,
2013-01-31 15:58:00,8.0,7.3,30.31,South,180,9.0,10.0,97,0.00,,,0.00,VWS V14.01,2013-01-31 22:58:00,
2013-01-31 16:03:00,8.0,7.3,30.31,SSE,157,6.0,11.0,97,0.00,,,0.00,VWS V14.01,2013-01-31 23:03:00,
2013-01-31 16:08:00,7.0,6.3,30.31,SE,135,5.0,8.0,97,0.00,,,0.00,VWS V14.01,2013-01-31 23:08:00,
2013-01-31 16:13:00,8.0,7.6,30.31,SSE,157,7.0,7.0,98,0.00,,,0.00,VWS V14.01,2013-01-31 23:13:00,
2013-01-31 16:18:00,7.0,6.6,30.31,SE,135,6.0,7.0,98,0.00,,,0.00,VWS V14.01,2013-01-31 23:18:00,
2013-01-31 16:23:00,7.0,6.8,30.31,SE,135,4.0,7.0,99,0.00,,,0.00,VWS V14.01,2013-01-31 23:23:00,
2013-01-31 16:28:00,6.0,6.0,30.31,SSE,157,3.0,7.0,100,0.00,,,0.00,VWS V14.01,2013-01-31 23:28:00,
2013-01-31 16:33:00,6.0,6.0,30.33,SSE,157,3.0,7.0,100,0.00,,,0.00,VWS V14.01,2013-01-31 23:33:00,
2013-01-31 16:38:00,6.0,6.0,30.33,SSE,157,3.0,7.0,100,0.00,,,0.00,VWS V14.01,2013-01-31 23:38:00,
2013-01-31 16:43:00,6.0,6.0,30.32,SSE,157,3.0,4.0,100,0.00,,,0.00,VWS V14.01,2013-01-31 23:43:00,
2013-01-31 16:48:00,5.0,5.0,30.32,SSE,157,3.0,5.0,100,0.00,,,0.00,VWS V14.01,2013-01-31 23:48:00,
2013-01-31 16:53:00,5.0,5.0,30.33,SSE,157,3.0,5.0,100,0.00,,,0.00,VWS V14.01,2013-01-31 23:53:00,
2013-01-31 16:58:00,5.0,5.0,30.33,SSE,157,3.0,6.0,100,0.00,,,0.00,VWS V14.01,2013-01-31 23:58:00,
2013-01-31 17:03:00,5.0,5.0,30.33,SSE,157,3.0,6.0,100,0.00,,,0.00,VWS V14.01,2013-02-01 00:03:00,
2013-01-31 17:08:00,5.0,5.0,30.33,SSE,157,5.0,6.0,100,0.00,,,0.00,VWS V14.01,2013-02-01 00:08:00,
2013-01-31 17:13:00,5.0,5.0,30.32,SSE,157,5.0,7.0,100,0.00,,,0.00,VWS V14.01,2013-02-01 00:13:00,
2013-01-31 17:18:00,5.0,5.0,30.32,SSE,157,3.0,8.0,100,0.00,,,0.00,VWS V14.01,2013-02-01 00:18:00,
2013-01-31 17:23:00,5.0,5.0,30.32,SSE,157,2.0,4.0,100,0.00,,,0.00,VWS V14.01,2013-02-01 00:23:00,
2013-01-31 17:28:00,5.0,5.0,30.32,SSE,157,3.0,5.0,100,0.00,,,0.00,VWS V14.01,2013-02-01 00:28:00,
2013-01-31 17:33:00,5.0,5.0,30.33,SE,135,1.0,6.0,100,0.00,,,0.00,VWS V14.01,2013-02-01 00:33:00,
2013-01-31 17:38:00,5.0,5.0,30.33,SE,135,0.0,6.0,100,0.00,,,0.00,VWS V14.01,2013-02-01 00:38:00,
2013-01-31 17:43:00,5.0,5.0,30.33,SSE,157,2.0,6.0,100,0.00,,,0.00,VWS V14.01,2013-02-01 00:43:00,
2013-01-31 17:48:00,5.0,5.0,30.33,SSE,157,3.0,6.0,100,0.00,,,0.00,VWS V14.01,2013-02-01 00:48:00,
2013-01-31 17:53:00,5.0,5.0,30.32,SE,135,3.0,7.0,100,0.00,,,0.00,VWS V14.01,2013-02-01 00:53:00,
2013-01-31 17:58:00,5.0,5.0,30.32,SE,135,4.0,8.0,100,0.00,,,0.00,VWS V14.01,2013-02-01 00:58:00,
2013-01-31 18:03:00,5.0,5.0,30.32,SSE,157,6.0,6.0,100,0.00,,,0.00,VWS V14.01,2013-02-01 01:03:00,
2013-01-31 18:08:00,5.0,5.0,30.33,SSE,157,6.0,6.0,100,0.00,,,0.00,VWS V14.01,2013-02-01 01:08:00,
2013-01-31 18:13:00,5.0,5.0,30.33,SSE,157,6.0,7.0,100,0.00,,,0.00,VWS V14.01,2013-02-01 01:13:00,
2013-01-31 18:18:00,5.0,5.0,30.33,SE,135,0.0,5.0,100,0.00,,,0.00,VWS V14.01,2013-02-01 01:18:00,
2013-01-31 18:23:00,5.0,5.0,30.33,SE,135,0.0,2.0,100,0.00,,,0.00,VWS V14.01,2013-02-01 01:23:00,
2013-01-31 18:28:00,5.0,5.0,30.32,ESE,112,0.0,6.0,100,0.00,,,0.00,VWS V14.01,2013-02-01 01:28:00,
2013-01-31 18:33:00,5.0,5.0,30.32,SE,135,0.0,5.0,100,0.00,,,0.00,VWS V14.01,2013-02-01 01:33:00,
2013-01-31 18:39:00,5.0,5.0,30.32,ESE,112,0.0,5.0,100,0.00,,,0.00,VWS V14.01,2013-02-01 01:39:00,
2013-01-31 18:44:00,5.0,5.0,30.32,SE,135,3.0,4.0,100,0.00,,,0.00,VWS V14.01,2013-02-01 01:44:00,
2013-01-31 18:49:00,5.0,5.0,30.32,SSE,157,3.0,5.0,100,0.00,,,0.00,VWS V14.01,2013-02-01 01:49:00,
2013-01-31 18:54:00,5.0,5.0,30.32,SSE,157,4.0,6.0,100,0.00,,,0.00,VWS V14.01,2013-02-01 01:54:00,
2013-01-31 18:59:00,6.0,6.0,30.31,SE,135,2.0,6.0,100,0.00,,,0.00,VWS V14.01,2013-02-01 01:59:00,
2013-01-31 19:04:00,6.0,6.0,30.31,SSE,157,5.0,5.0,100,0.00,,,0.00,VWS V14.01,2013-02-01 02:04:00,
2013-01-31 19:09:00,6.0,6.0,30.31,SSE,157,7.0,7.0,100,0.00,,,0.00,VWS V14.01,2013-02-01 02:09:00,
2013-01-31 19:14:00,6.0,6.0,30.31,SSE,157,3.0,6.0,100,0.00,,,0.00,VWS V14.01,2013-02-01 02:14:00,
2013-01-31 19:19:00,6.0,6.0,30.31,SSE,157,5.0,8.0,100,0.00,,,0.00,VWS V14.01,2013-02-01 02:19:00,
2013-01-31 19:24:00,6.0,6.0,30.31,South,180,4.0,6.0,100,0.00,,,0.00,VWS V14.01,2013-02-01 02:24:00,
2013-01-31 19:29:00,6.0,6.0,30.31,South,180,3.0,8.0,100,0.00,,,0.00,VWS V14.01,2013-02-01 02:29:00,
2013-01-31 19:34:00,6.0,6.0,30.31,SSE,157,4.0,7.0,100,0.00,,,0.00,VWS V14.01,2013-02-01 02:34:00,
2013-01-31 19:39:00,6.0,6.0,30.30,SSE,157,3.0,6.0,100,0.00,,,0.00,VWS V14.01,2013-02-01 02:39:00,
2013-01-31 19:44:00,6.0,6.0,30.30,SSE,157,3.0,7.0,100,0.00,,,0.00,VWS V14.01,2013-02-01 02:44:00,
2013-01-31 19:49:00,6.0,6.0,30.30,South,180,3.0,5.0,100,0.00,,,0.00,VWS V14.01,2013-02-01 02:49:00,
2013-01-31 19:54:00,6.0,6.0,30.30,SSE,157,4.0,6.0,100,0.00,,,0.00,VWS V14.01,2013-02-01 02:54:00,
2013-01-31 19:59:00,6.0,6.0,30.30,SSE,157,4.0,6.0,100,0.00,,,0.00,VWS V14.01,2013-02-01 02:59:00,
2013-01-31 20:04:00,6.0,6.0,30.30,SE,135,3.0,6.0,100,0.00,,,0.00,VWS V14.01,2013-02-01 03:04:00,
2013-01-31 20:09:00,6.0,6.0,30.30,SSE,157,3.0,6.0,100,0.00,,,0.00,VWS V14.01,2013-02-01 03:09:00,
2013-01-31 20:14:00,6.0,6.0,30.30,SSE,157,3.0,7.0,100,0.00,,,0.00,VWS V14.01,2013-02-01 03:14:00,
2013-01-31 20:19:00,6.0,6.0,30.30,SE,135,4.0,6.0,100,0.00,,,0.00,VWS V14.01,2013-02-01 03:19:00,
2013-01-31 20:24:00,6.0,6.0,30.30,SSE,157,6.0,6.0,100,0.00,,,0.00,VWS V14.01,2013-02-01 03:24:00,
2013-01-31 20:29:00,6.0,6.0,30.30,SSE,157,6.0,6.0,100,0.00,,,0.00,VWS V14.01,2013-02-01 03:29:00,
2013-01-31 20:34:00,6.0,6.0,30.30,SSE,157,5.0,6.0,100,0.00,,,0.00,VWS V14.01,2013-02-01 03:34:00,
2013-01-31 20:39:00,6.0,6.0,30.30,SE,135,3.0,7.0,100,0.00,,,0.00,VWS V14.01,2013-02-01 03:39:00,
2013-01-31 20:44:00,6.0,6.0,30.30,SE,135,2.0,4.0,100,0.00,,,0.00,VWS V14.01,2013-02-01 03:44:00,
2013-01-31 20:49:00,6.0,6.0,30.29,SE,135,4.0,8.0,100,0.00,,,0.00,VWS V14.01,2013-02-01 03:49:00,
2013-01-31 20:54:00,5.0,5.0,30.29,SE,135,5.0,7.0,100,0.00,,,0.00,VWS V14.01,2013-02-01 03:54:00,
2013-01-31 20:59:00,5.0,5.0,30.30,SSE,157,6.0,6.0,100,0.00,,,0.00,VWS V14.01,2013-02-01 03:59:00,
2013-01-31 21:04:00,5.0,5.0,30.30,South,180,3.0,8.0,100,0.00,,,0.00,VWS V14.01,2013-02-01 04:04:00,
2013-01-31 21:09:00,5.0,5.0,30.30,South,180,0.0,9.0,100,0.00,,,0.00,VWS V14.01,2013-02-01 04:09:00,
2013-01-31 21:14:00,4.0,4.0,30.30,SSE,157,3.0,7.0,100,0.00,,,0.00,VWS V14.01,2013-02-01 04:14:00,
2013-01-31 21:19:00,4.0,4.0,30.30,SSE,157,2.0,6.0,100,0.00,,,0.00,VWS V14.01,2013-02-01 04:19:00,
2013-01-31 21:24:00,4.0,4.0,30.30,South,180,1.0,5.0,100,0.00,,,0.00,VWS V14.01,2013-02-01 04:24:00,
2013-01-31 21:29:00,4.0,4.0,30.30,SSE,157,5.0,7.0,100,0.00,,,0.00,VWS V14.01,2013-02-01 04:29:00,
2013-01-31 21:34:00,4.0,4.0,30.30,SSE,157,2.0,6.0,100,0.00,,,0.00,VWS V14.01,2013-02-01 04:34:00,
2013-01-31 21:39:00,4.0,4.0,30.30,SSE,157,0.0,6.0,100,0.00,,,0.00,VWS V14.01,2013-02-01 04:39:00,
2013-01-31 21:44:00,3.0,3.0,30.30,SSE,157,4.0,5.0,100,0.00,,,0.00,VWS V14.01,2013-02-01 04:44:00,
2013-01-31 21:49:00,4.0,4.0,30.29,South,180,4.0,6.0,100,0.00,,,0.00,VWS V14.01,2013-02-01 04:49:00,
2013-01-31 21:54:00,4.0,4.0,30.29,South,180,4.0,6.0,100,0.00,,,0.00,VWS V14.01,2013-02-01 04:54:00,
2013-01-31 21:59:00,4.0,4.0,30.29,SSE,157,3.0,6.0,100,0.00,,,0.00,VWS V14.01,2013-02-01 04:59:00,
2013-01-31 22:00:00,4.0,4.0,30.29,SSE,157,4.0,4.0,100,0.00,,,0.00,VWS V14.01,2013-02-01 05:00:00,
2013-01-31 22:01:00,4.0,4.0,30.29,SSE,157,4.0,5.0,100,0.00,,,0.00,VWS V14.01,2013-02-01 05:01:00,
2013-01-31 22:15:00,4.0,4.0,30.29,SSE,157,3.0,6.0,100,0.00,,,0.00,VWS V14.01,2013-02-01 05:15:00,
2013-01-31 22:30:00,4.0,4.0,30.28,SSE,157,3.0,3.0,100,0.00,,,0.00,VWS V14.01,2013-02-01 05:30:00,
2013-01-31 22:45:00,4.0,4.0,30.27,SSE,157,3.0,3.0,100,0.00,,,0.00,VWS V14.01,2013-02-01 05:45:00,
2013-01-31 23:00:00,5.0,5.0,30.26,South,180,4.0,4.0,100,0.00,,,0.00,VWS V14.01,2013-02-01 06:00:00,
2013-01-31 23:15:00,6.0,6.0,30.25,South,180,3.0,4.0,100,0.00,,,0.00,VWS V14.01,2013-02-01 06:15:00,
2013-01-31 23:30:00,7.0,7.0,30.24,South,180,4.0,4.0,100,0.00,,,0.00,VWS V14.01,2013-02-01 06:30:00,
2013-01-31 23:45:00,7.0,7.0,30.24,South,180,4.0,4.0,100,0.00,,,0.00,VWS V14.01,2013-02-01 06:45:00,